Chapel Hill, NC

4:14 AM EDT on October 23, 2017 (GMT -0400)
Williams

Weather History for KIGX - May, 2014

Change the Weather History Date:

Sunday, May 18, 2014

  Actual Average Record
Temperature  
Mean Temperature 58 °F -  
Max Temperature 69 °F 78 °F 90 °F (1952)
Min Temperature 48 °F 54 °F 36 °F (1973)
Degree Days  
Heating Degree Days 7    
Growing Degree Days 8 (Base 50)    
Moisture  
Dew Point 44 °F    
Average Humidity 62    
Maximum Humidity 93    
Minimum Humidity 40    
Precipitation  
Precipitation 0.00 in - - ()
Sea Level Pressure  
Sea Level Pressure 30.20 in    
Wind  
Wind Speed 2 mph (NNE)    
Max Wind Speed 8 mph    
Max Gust Speed -    
Visibility 10 miles    
Events      
Averages and records for this station are not official NWS values.
T = Trace of Precipitation, MM = Missing Value Source: NWS Daily Summary

Daily Weather History Graph

Daily Weather History Graph

Search for Another Location

Airport or City:

Trip Planner

Search our weather history database for the weather conditions in past years. The results will help you decide how hot, cold, wet, or windy it might be!

Date:

Astronomy

May. 18, 2014 Rise Set
Actual Time 6:08 AM EDT 8:17 PM EDT
Civil Twilight 5:39 AM EDT 8:46 PM EDT
Nautical Twilight 5:04 AM EDT 9:21 PM EDT
Astronomical Twilight 4:26 AM EDT 9:59 PM EDT
Moon No Moon Rise 9:54 AM EDT (5/18)
Length of Visible Light 15h 06m
Length of Day
14h 09m
Waning Gibbous, 81% of the Moon is Illuminated
May 18
Waning Gibbous
May 21
Last Quarter
May 28
New
Jun 5
First Quarter
Jun 13
Full

Hourly Weather History & Observations

Time (EDT) Temp. Dew Point Humidity Pressure Visibility Wind Dir Wind Speed Gust Speed Precip Events Conditions
12:56 AM 59.0 °F 45.0 °F 60% 30.18 in 10.0 mi Calm Calm - N/A   Overcast
1:56 AM 55.0 °F 45.0 °F 69% 30.18 in 10.0 mi Calm Calm - N/A   Partly Cloudy
2:56 AM 53.1 °F 46.9 °F 80% 30.19 in 10.0 mi Calm Calm - N/A   Mostly Cloudy
3:56 AM 53.1 °F 46.9 °F 80% 30.19 in 10.0 mi Calm Calm - N/A   Overcast
4:56 AM 50.0 °F 45.0 °F 83% 30.19 in 10.0 mi Calm Calm - N/A   Clear
5:56 AM 50.0 °F 44.1 °F 80% 30.19 in 10.0 mi Calm Calm - N/A   Clear
6:56 AM 54.0 °F 44.1 °F 69% 30.21 in 10.0 mi Variable 3.5 mph - N/A   Overcast
7:56 AM 57.0 °F 44.1 °F 62% 30.23 in 10.0 mi Variable 5.8 mph - N/A   Mostly Cloudy
8:56 AM 60.1 °F 44.1 °F 55% 30.23 in 10.0 mi North 6.9 mph - N/A   Mostly Cloudy
9:56 AM 61.0 °F 42.1 °F 50% 30.23 in 10.0 mi Variable 6.9 mph - N/A   Mostly Cloudy
10:56 AM 62.1 °F 42.1 °F 48% 30.23 in 10.0 mi NNE 8.1 mph - N/A   Partly Cloudy
11:56 AM 64.0 °F 43.0 °F 46% 30.22 in 10.0 mi NNE 5.8 mph - N/A   Mostly Cloudy
12:56 PM 64.9 °F 43.0 °F 45% 30.22 in 10.0 mi NNE 5.8 mph - N/A   Mostly Cloudy
1:56 PM 66.0 °F 42.1 °F 42% 30.21 in 10.0 mi North - - N/A   Clear
2:56 PM 66.0 °F 42.1 °F 42% 30.20 in 10.0 mi ENE 4.6 mph - N/A   Clear
3:56 PM 66.9 °F 42.1 °F 40% 30.18 in 10.0 mi Variable 3.5 mph - N/A   Clear
4:56 PM 66.0 °F 42.1 °F 42% 30.18 in 10.0 mi NNW 3.5 mph - N/A   Clear
5:56 PM 66.9 °F 43.0 °F 42% 30.18 in 10.0 mi North 4.6 mph - N/A   Clear
6:56 PM 66.0 °F 44.1 °F 45% 30.17 in 10.0 mi NE 5.8 mph - N/A   Partly Cloudy
7:56 PM 60.1 °F 48.0 °F 64% 30.19 in 10.0 mi Calm Calm - N/A   Clear
8:56 PM 54.0 °F 48.9 °F 83% 30.20 in 10.0 mi Calm Calm - N/A   Clear
9:56 PM 52.0 °F 46.0 °F 80% 30.22 in 10.0 mi Calm Calm - N/A   Clear
10:56 PM 50.0 °F 46.9 °F 89% 30.22 in 10.0 mi Calm Calm - N/A   Clear
11:56 PM 48.9 °F 46.9 °F 93% 30.23 in 10.0 mi Calm Calm - N/A   Clear